This is the latest recevied weather packets stored in our database for station/object KF7ROW. If no packets are shown the sender has not sent any weather packets the latest 10 day(s).
| Time | Temp. | Humidity | Pressure | Rain* | Wind** | Luminosity | Snow |
|---|---|---|---|---|---|---|---|
| 1777938707 | 15° C | 82% | 1018.2 hPa | 0 mm | - | 328 W/m² | - |
| 1777938404 | 15.56° C | 82% | 1018.1 hPa | 0 mm | - | 307 W/m² | - |
| 1777938102 | 15.56° C | 82% | 1018.2 hPa | 0 mm | - | 383 W/m² | - |
| 1777937797 | 15° C | 83% | 1018.2 hPa | 0 mm | - | 345 W/m² | - |
| 1777937493 | 15° C | 82% | 1018.1 hPa | 0 mm | - | 329 W/m² | - |
| 1777937191 | 15° C | 82% | 1018 hPa | 0 mm | - | 331 W/m² | - |
| 1777936888 | 15° C | 83% | 1018.2 hPa | 0 mm | - | 327 W/m² | - |
| 1777936584 | 15° C | 83% | 1018.3 hPa | 0 mm | - | 347 W/m² | - |
| 1777936275 | 15° C | 82% | 1018.3 hPa | 0 mm | - | 302 W/m² | - |
| 1777935971 | 15° C | 83% | 1018.2 hPa | 0 mm | - | 301 W/m² | - |
| 1777935670 | 15° C | 82% | 1018.2 hPa | 0 mm | - | 311 W/m² | - |
| 1777935368 | 15° C | 83% | 1018.3 hPa | 0 mm | - | 353 W/m² | - |
| 1777935064 | 15° C | 84% | 1018.3 hPa | 0 mm | - | 379 W/m² | - |
| 1777934761 | 15° C | 84% | 1018.3 hPa | 0 mm | - | 305 W/m² | - |
| 1777934458 | 15° C | 84% | 1018.4 hPa | 0 mm | - | 311 W/m² | - |
| 1777934155 | 15° C | 82% | 1018.5 hPa | 0 mm | - | 333 W/m² | - |
| 1777933850 | 15° C | 82% | 1018.6 hPa | 0 mm | - | 346 W/m² | - |
| 1777933548 | 15° C | 83% | 1018.5 hPa | 0 mm | - | 351 W/m² | - |
| 1777933245 | 15° C | 84% | 1018.7 hPa | 0 mm | - | 369 W/m² | - |
| 1777932942 | 15° C | 83% | 1018.7 hPa | 0 mm | - | 362 W/m² | - |
| 1777932639 | 15° C | 84% | 1018.5 hPa | 0 mm | - | 339 W/m² | - |
| 1777932335 | 15° C | 84% | 1018.7 hPa | 0 mm | - | 338 W/m² | - |
| 1777932032 | 15° C | 84% | 1018.7 hPa | 0 mm | - | 343 W/m² | - |
| 1777931729 | 15° C | 84% | 1018.7 hPa | 0 mm | - | 373 W/m² | - |
| 1777931426 | 15° C | 84% | 1018.6 hPa | 0 mm | - | 416 W/m² | - |
* Rain latest hour (hover to see other rain measurements)
** Current wind speed in m/s (hover to see current wind gust speed)